| time (UTC) | temp C | wind direction | speed KPH | gust KPH | rain 1hr cm | rain 24hr cm | rain mn cm | humidity % | barometer mb |
| 20260503220454 | 14 | 239 | 1.6 | 3.2 | 0.00 | 0.00 | 0.00 | 62 | 1013.0 |
| 20260503215952 | 14 | 236 | 1.6 | 3.2 | 0.00 | 0.00 | 0.00 | 62 | 1013.0 |
| 20260503215451 | 14 | 236 | 1.6 | 3.2 | 0.00 | 0.00 | 0.00 | 62 | 1013.0 |
| 20260503214950 | 15 | 240 | 1.6 | 4.8 | 0.00 | 0.00 | 0.00 | 62 | 1013.0 |
| 20260503214450 | 15 | 240 | 1.6 | 4.8 | 0.00 | 0.00 | 0.00 | 62 | 1013.0 |
| 20260503213949 | 15 | 232 | 1.6 | 4.8 | 0.00 | 0.00 | 0.00 | 61 | 1012.9 |
| 20260503213448 | 15 | 232 | 1.6 | 4.8 | 0.00 | 0.00 | 0.00 | 61 | 1012.9 |
| 20260503212946 | 15 | 270 | 1.6 | 6.4 | 0.00 | 0.00 | 0.00 | 61 | 1012.9 |
| 20260503212445 | 15 | 270 | 1.6 | 6.4 | 0.00 | 0.00 | 0.00 | 61 | 1012.9 |
| 20260503211944 | 15 | 270 | 1.6 | 3.2 | 0.00 | 0.00 | 0.00 | 59 | 1012.9 |
| 20260503211443 | 15 | 270 | 1.6 | 3.2 | 0.00 | 0.00 | 0.00 | 59 | 1012.9 |
| 20260503210942 | 15 | 270 | 1.6 | 3.2 | 0.00 | 0.00 | 0.00 | 59 | 1012.9 |
| 20260503210441 | 15 | 251 | 1.6 | 6.4 | 0.00 | 0.00 | 0.00 | 59 | 1012.8 |
| 20260503205941 | 15 | 251 | 1.6 | 6.4 | 0.00 | 0.00 | 0.00 | 59 | 1012.8 |
| 20260503205441 | 15 | 237 | 1.6 | 4.8 | 0.00 | 0.00 | 0.00 | 59 | 1012.8 |
| 20260503204939 | 15 | 237 | 1.6 | 4.8 | 0.00 | 0.00 | 0.00 | 59 | 1012.8 |
| 20260503204438 | 15 | 270 | 1.6 | 3.2 | 0.00 | 0.00 | 0.00 | 58 | 1012.6 |
| 20260503203937 | 15 | 270 | 1.6 | 3.2 | 0.00 | 0.00 | 0.00 | 58 | 1012.6 |
| 20260503203435 | 15 | 270 | 1.6 | 4.8 | 0.00 | 0.00 | 0.00 | 57 | 1012.6 |
| 20260503202934 | 15 | 270 | 1.6 | 4.8 | 0.00 | 0.00 | 0.00 | 57 | 1012.6 |
| 20260503202433 | 15 | 241 | 1.6 | 4.8 | 0.00 | 0.00 | 0.00 | 56 | 1012.5 |
| 20260503201933 | 15 | 241 | 1.6 | 4.8 | 0.00 | 0.00 | 0.00 | 56 | 1012.5 |
| 20260503201432 | 15 | 229 | 1.6 | 4.8 | 0.00 | 0.00 | 0.00 | 55 | 1012.4 |
| 20260503200931 | 15 | 229 | 1.6 | 4.8 | 0.00 | 0.00 | 0.00 | 55 | 1012.4 |
| 20260503200430 | 16 | 249 | 1.6 | 3.2 | 0.00 | 0.00 | 0.00 | 54 | 1012.3 |
| 20260503195929 | 16 | 249 | 1.6 | 3.2 | 0.00 | 0.00 | 0.00 | 54 | 1012.3 |
| 20260503195427 | 16 | 254 | 1.6 | 3.2 | 0.00 | 0.00 | 0.00 | 54 | 1012.3 |
| 20260503194926 | 16 | 254 | 1.6 | 3.2 | 0.00 | 0.00 | 0.00 | 54 | 1012.3 |
| 20260503194426 | 16 | 251 | 1.6 | 3.2 | 0.00 | 0.00 | 0.00 | 53 | 1012.2 |
| 20260503193925 | 16 | 251 | 1.6 | 3.2 | 0.00 | 0.00 | 0.00 | 53 | 1012.2 |
| 20260503193424 | 17 | 270 | 1.6 | 4.8 | 0.00 | 0.00 | 0.00 | 52 | 1012.2 |
| 20260503192923 | 17 | 270 | 1.6 | 4.8 | 0.00 | 0.00 | 0.00 | 52 | 1012.2 |
| 20260503192422 | 17 | 296 | 1.6 | 4.8 | 0.00 | 0.00 | 0.00 | 51 | 1012.0 |
| 20260503191921 | 17 | 296 | 1.6 | 4.8 | 0.00 | 0.00 | 0.00 | 51 | 1012.0 |
| 20260503191419 | 17 | 294 | 1.6 | 6.4 | 0.00 | 0.00 | 0.00 | 51 | 1012.0 |
| 20260503190918 | 17 | 294 | 1.6 | 6.4 | 0.00 | 0.00 | 0.00 | 51 | 1012.0 |
| 20260503190417 | 18 | 307 | 1.6 | 6.4 | 0.00 | 0.00 | 0.00 | 50 | 1011.9 |
| 20260503185916 | 18 | 307 | 1.6 | 6.4 | 0.00 | 0.00 | 0.00 | 50 | 1011.9 |
| 20260503185416 | 18 | 288 | 1.6 | 4.8 | 0.00 | 0.00 | 0.00 | 48 | 1011.8 |
| 20260503184915 | 18 | 288 | 1.6 | 4.8 | 0.00 | 0.00 | 0.00 | 48 | 1011.8 |
| 20260503184414 | 18 | 236 | 1.6 | 3.2 | 0.00 | 0.00 | 0.00 | 48 | 1011.7 |
| 20260503183912 | 18 | 236 | 1.6 | 3.2 | 0.00 | 0.00 | 0.00 | 48 | 1011.7 |
| 20260503183412 | 18 | 270 | 1.6 | 4.8 | 0.00 | 0.00 | 0.00 | 47 | 1011.6 |
| 20260503182911 | 18 | 270 | 1.6 | 4.8 | 0.00 | 0.00 | 0.00 | 47 | 1011.6 |
| 20260503182410 | 19 | 315 | 1.6 | 4.8 | 0.00 | 0.00 | 0.00 | 47 | 1011.7 |
| 20260503181909 | 19 | 315 | 1.6 | 4.8 | 0.00 | 0.00 | 0.00 | 47 | 1011.7 |
| 20260503181407 | 19 | 90 | 1.6 | 4.8 | 0.00 | 0.00 | 0.00 | 46 | 1011.8 |
| 20260503180906 | 19 | 90 | 1.6 | 4.8 | 0.00 | 0.00 | 0.00 | 46 | 1011.8 |
| 20260503180405 | 20 | 225 | 3.2 | 11.3 | 0.00 | 0.00 | 0.00 | 45 | 1011.7 |
| 20260503175904 | 20 | 225 | 3.2 | 11.3 | 0.00 | 0.00 | 0.00 | 45 | 1011.7 |
| 20260503175404 | 20 | 293 | 3.2 | 8.0 | 0.00 | 0.00 | 0.00 | 44 | 1011.6 |
| 20260503174903 | 20 | 293 | 3.2 | 8.0 | 0.00 | 0.00 | 0.00 | 44 | 1011.6 |
| 20260503174402 | 20 | 295 | 4.8 | 14.5 | 0.00 | 0.00 | 0.00 | 45 | 1011.4 |
| 20260503173901 | 20 | 295 | 4.8 | 14.5 | 0.00 | 0.00 | 0.00 | 45 | 1011.4 |
| 20260503173400 | 21 | 198 | 1.6 | 4.8 | 0.00 | 0.00 | 0.00 | 56 | 1011.3 |
| 20260503172859 | 21 | 198 | 1.6 | 4.8 | 0.00 | 0.00 | 0.00 | 56 | 1011.3 |
| 20260503172357 | 21 | 290 | 1.6 | 6.4 | 0.00 | 0.00 | 0.00 | 55 | 1010.9 |
| 20260503171856 | 21 | 290 | 1.6 | 6.4 | 0.00 | 0.00 | 0.00 | 55 | 1010.9 |
| 20260503171355 | 21 | 270 | 1.6 | 3.2 | 0.00 | 0.00 | 0.00 | 55 | 1010.9 |
| 20260503170855 | 21 | 270 | 1.6 | 3.2 | 0.00 | 0.00 | 0.00 | 55 | 1010.9 |
| 20260503170353 | 21 | 195 | 1.6 | 3.2 | 0.00 | 0.00 | 0.00 | 55 | 1010.8 |
| 20260503150830 | 23 | 291 | 3.2 | 8.0 | 0.00 | 0.00 | 0.00 | 47 | 1010.7 |
| 20260503150330 | 23 | 283 | 3.2 | 8.0 | 0.00 | 0.00 | 0.00 | 45 | 1010.7 |
| 20260503131414 | 25 | 246 | 3.2 | 9.7 | 0.00 | 0.00 | 0.00 | 40 | 1011.6 |
| 20260503130906 | 25 | 246 | 3.2 | 9.7 | 0.00 | 0.00 | 0.00 | 40 | 1011.6 |
| 20260503130321 | 25 | 211 | 3.2 | 14.5 | 0.00 | 0.00 | 0.00 | 42 | 1011.8 |